STARLINK-32599, 62048

Orbit data source: Space-Track

STARLINK-32599, 62048 is a payload satellite owned by SpaceX/Seattle (US) in LEO that was launched on Thu, 21 Nov 2024 UTC via an FALCON 9 launch vehicle from the Air Force Eastern Test Range (AFETR). Payload-class satellites include a variety of spacecraft equipped with specific instruments for various scientific and technological missions. These include communications satellites like Starlink; space stations such as the ISS; scientific satellites like the Hubble; Earth observation satellites from companies like Planet Labs, Umbra, and HawkEye 360; GPS; miniature CubeSats for education and research; and military/defense satellites.

Loading next visibility...
Identifier
62048, 2024-216S
Orbit
LEO
Last TLE update
11 hours ago
Origin
Manufacturer
SpaceX/Seattle
Mission
Operational Commercial Communications
Bus & Motor
STARLINK V2M, Unknown motor
Mass
730 kg wet, ~700 kg dry
Launch date (UTC)
2024-11-21 (7 months ago)
Launch vehicle
FALCON 9
Launch site
Air Force Eastern Test Range (AFETR)
Object type
Payload
Rocket body
Debris
Shape & HBR
Box + 2 Pan, 29 m
Radar Cross Section
36.964 m², Large (>1 m²)

Expand to show TLE details & history

TLE from 11 hours ago
0 STARLINK-32599
1 62048U 24216S   25187.45964835  .00020566  00000-0  75438-3 0  9991
2 62048  43.0004 214.1908 0002310 264.7924  95.2664 15.27596498 36139
Epoch: 2025-07-06T11:01Z
TLE epoch observation values (Epoch: 2025-07-06T11:01:53.617Z)
Latitude
-0.00002°
Longitude
124.03435°
Altitude
482.921 km
Speed
7.626 km/s
True Right ascension
14h 16m 45s
True Declination
0° 00' 00"
Sunlit
Object was in daylight at epoch
Visualization orbit readout
Latitude
39.45454°
Longitude
-120.02983°
Altitude
486.741 km
Speed
7.627 km/s
Apparent Right ascension
22h 14m 49s
Apparent Declination
1° 31' 04"
Sunlit
Object is in daylight
Visualization observer readout
Local Sidereal Time
10:30:19
Azimuth
5.846° NNE
Elevation
-48.414°
Doppler factor
1
Orbital elements
Apogee altitude
486.53 km
Perigee altitude
483.359 km
Semi-major axis
6,863.082 km
Eccentricity
0.00023
Inclination
43.0004°
RAAN
214.1908°
Arg. of periapsis
264.7924°
True anomaly
Unknown
Mean anomaly
95.2664°
Eccentric anomaly
Unknown
Mean motion
3.81737 °/min
Orbital period
94.31 mins
BSTAR
0.00075438
Loading maneuver chart data...
Loading SW <> Apogee altitude chart data...
Loading historical data...
Loading historical data...
Loading historical data...
Loading historical data...
Loading historical data...
Loading historical data...
Loading historical data...

STARLINK-32599 Visibility forecast

Observer location: undefined°, undefined°

Span
Click to sort rows by Start time (UTC) header in descending order
Start Az.
Max El. time (UTC)
Max El. Az.
Max El.
End time (UTC)
End Az.
5 mins2025-07-07 04:29:11.321Z188.469° SSW2025-07-07 04:31:11.321Z148.931° SSE20.662°2025-07-07 04:34:11.321Z94.156° ESE
5 mins2025-07-07 06:08:11.321Z250.112° W2025-07-07 06:10:11.321Z76.883° E44.415°2025-07-07 06:13:11.321Z72.061° E
5 mins2025-07-07 07:47:11.321Z292.794° NW2025-07-07 07:49:11.321Z5.021° NNE37.985°2025-07-07 07:52:11.321Z73.966° E
5 mins2025-07-07 09:26:11.321Z291.126° WNW2025-07-07 09:28:11.321Z353.979° N44.591°2025-07-07 09:31:11.321Z103.829° ESE
4 mins2025-07-07 11:05:11.321Z255.277° W2025-07-07 11:07:11.321Z206.422° SW24.199°2025-07-07 11:09:11.321Z163.98° S
|